Time,TemperatureF,DewpointF,PressureIn,WindDirection,WindDirectionDegrees,WindSpeedMPH,WindSpeedGustMPH,Humidity,HourlyPrecipIn,Conditions,Clouds,dailyrainin,SoftwareType,DateUTC
2013-05-19 00:01:00,73.9,66.1,29.60,East,90,2.2,2.5,76,0.00,,,0.00,WUHU216HW,2013-05-19 05:01:00,
2013-05-19 00:06:00,74.0,66.1,29.60,East,90,2.9,3.4,76,0.00,,,0.00,WUHU216HW,2013-05-19 05:06:00,
2013-05-19 00:11:00,74.2,66.3,29.59,ENE,78,2.6,4.5,76,0.00,,,0.00,WUHU216HW,2013-05-19 05:11:00,
2013-05-19 00:16:00,74.2,66.0,29.59,ENE,77,2.0,4.5,75,0.00,,,0.00,WUHU216HW,2013-05-19 05:16:00,
2013-05-19 00:21:00,74.1,65.8,29.60,North,0,1.3,4.3,75,0.00,,,0.00,WUHU216HW,2013-05-19 05:21:00,
2013-05-19 00:26:00,74.1,66.2,29.59,East,90,1.8,3.8,76,0.00,,,0.00,WUHU216HW,2013-05-19 05:26:00,
2013-05-19 00:31:00,74.3,66.4,29.59,ENE,68,2.5,3.8,76,0.00,,,0.00,WUHU216HW,2013-05-19 05:31:00,
2013-05-19 00:36:00,74.5,66.3,29.59,East,100,1.1,4.0,75,0.00,,,0.00,WUHU216HW,2013-05-19 05:36:00,
2013-05-19 00:41:00,74.3,66.5,29.59,ENE,73,2.5,4.0,76,0.00,,,0.00,WUHU216HW,2013-05-19 05:41:00,
2013-05-19 00:46:00,74.2,66.3,29.59,ENE,68,1.6,3.4,76,0.00,,,0.00,WUHU216HW,2013-05-19 05:46:00,
2013-05-19 00:51:00,74.2,66.3,29.60,SE,135,1.8,2.2,76,0.00,,,0.00,WUHU216HW,2013-05-19 05:51:00,
2013-05-19 00:56:00,73.8,66.3,29.60,SE,146,0.7,2.2,77,0.00,,,0.00,WUHU216HW,2013-05-19 05:56:00,
2013-05-19 01:01:00,73.7,66.2,29.60,ESE,119,0.8,1.8,77,0.00,,,0.00,WUHU216HW,2013-05-19 06:01:00,
2013-05-19 01:06:00,73.5,66.0,29.60,ESE,113,0.7,1.8,77,0.00,,,0.00,WUHU216HW,2013-05-19 06:06:00,
2013-05-19 01:11:00,73.3,65.8,29.60,SSE,158,0.4,1.8,77,0.00,,,0.00,WUHU216HW,2013-05-19 06:11:00,
2013-05-19 01:16:00,73.1,66.0,29.60,SE,135,0.4,1.6,78,0.00,,,0.00,WUHU216HW,2013-05-19 06:16:00,
2013-05-19 01:21:00,73.1,66.0,29.60,SE,135,0.4,1.8,78,0.00,,,0.00,WUHU216HW,2013-05-19 06:21:00,
2013-05-19 01:26:00,72.9,65.8,29.59,NE,45,0.9,1.8,78,0.00,,,0.00,WUHU216HW,2013-05-19 06:26:00,
2013-05-19 01:31:00,72.9,66.1,29.60,South,180,0.7,1.8,79,0.00,,,0.00,WUHU216HW,2013-05-19 06:31:00,
2013-05-19 01:36:00,72.8,66.0,29.60,SE,135,0.4,1.8,79,0.00,,,0.00,WUHU216HW,2013-05-19 06:36:00,
2013-05-19 01:41:00,72.8,66.4,29.61,SSW,207,0.7,2.9,80,0.00,,,0.00,WUHU216HW,2013-05-19 06:41:00,
2013-05-19 01:46:00,72.6,66.2,29.61,SE,133,1.4,2.9,80,0.00,,,0.00,WUHU216HW,2013-05-19 06:46:00,
2013-05-19 01:51:00,72.7,66.3,29.61,SE,135,1.2,2.5,80,0.00,,,0.00,WUHU216HW,2013-05-19 06:51:00,
2013-05-19 01:56:00,72.7,66.3,29.61,SW,225,0.9,2.5,80,0.00,,,0.00,WUHU216HW,2013-05-19 06:56:00,
2013-05-19 02:01:00,72.7,66.3,29.61,SE,135,1.8,2.5,80,0.00,,,0.00,WUHU216HW,2013-05-19 07:01:00,
2013-05-19 02:06:00,72.7,66.3,29.62,SE,135,1.8,1.8,80,0.00,,,0.00,WUHU216HW,2013-05-19 07:06:00,
2013-05-19 02:11:00,72.4,66.4,29.62,SSE,148,1.8,2.7,81,0.00,,,0.00,WUHU216HW,2013-05-19 07:11:00,
2013-05-19 02:16:00,72.4,66.4,29.63,WSW,240,0.6,2.7,81,0.00,,,0.00,WUHU216HW,2013-05-19 07:16:00,
2013-05-19 02:21:00,72.2,65.8,29.63,South,181,0.7,1.1,80,0.00,,,0.00,WUHU216HW,2013-05-19 07:21:00,
2013-05-19 02:26:00,71.8,65.7,29.63,SSW,196,0.4,1.1,81,0.00,,,0.00,WUHU216HW,2013-05-19 07:26:00,
2013-05-19 02:31:00,71.7,65.7,29.63,ESE,118,0.5,3.4,81,0.00,,,0.00,WUHU216HW,2013-05-19 07:31:00,
2013-05-19 02:36:00,71.7,66.0,29.63,East,90,0.4,3.4,82,0.00,,,0.00,WUHU216HW,2013-05-19 07:36:00,
2013-05-19 02:41:00,71.6,65.9,29.62,East,81,1.2,3.4,82,0.00,,,0.00,WUHU216HW,2013-05-19 07:41:00,
2013-05-19 02:46:00,71.6,65.9,29.62,East,80,0.7,3.4,82,0.00,,,0.00,WUHU216HW,2013-05-19 07:46:00,
2013-05-19 02:51:00,71.5,66.2,29.60,SE,135,2.0,2.7,83,0.00,,,0.00,WUHU216HW,2013-05-19 07:51:00,
2013-05-19 02:56:00,71.7,66.3,29.60,SE,135,2.5,3.1,83,0.00,,,0.00,WUHU216HW,2013-05-19 07:56:00,
2013-05-19 03:01:00,71.5,66.1,29.61,East,85,0.4,3.1,83,0.00,,,0.00,WUHU216HW,2013-05-19 08:01:00,
2013-05-19 03:06:00,71.3,66.0,29.61,SSE,158,0.4,2.5,83,0.00,,,0.00,WUHU216HW,2013-05-19 08:06:00,
2013-05-19 03:11:00,71.2,65.9,29.61,ESE,117,0.3,1.1,83,0.00,,,0.00,WUHU216HW,2013-05-19 08:11:00,
2013-05-19 03:16:00,71.2,66.2,29.62,SE,137,0.8,2.0,84,0.00,,,0.00,WUHU216HW,2013-05-19 08:16:00,
2013-05-19 03:21:00,71.4,66.4,29.62,SSE,158,0.4,2.2,84,0.00,,,0.00,WUHU216HW,2013-05-19 08:21:00,
2013-05-19 03:26:00,71.6,66.2,29.62,SSE,158,1.1,2.2,83,0.00,,,0.00,WUHU216HW,2013-05-19 08:26:00,
2013-05-19 03:31:00,71.7,66.7,29.63,South,180,0.7,1.8,84,0.00,,,0.00,WUHU216HW,2013-05-19 08:31:00,
2013-05-19 03:36:00,71.8,66.5,29.63,East,94,0.5,1.8,83,0.00,,,0.00,WUHU216HW,2013-05-19 08:36:00,
2013-05-19 03:41:00,71.8,66.4,29.63,SE,135,0.4,1.1,83,0.00,,,0.00,WUHU216HW,2013-05-19 08:41:00,
2013-05-19 03:46:00,71.7,66.4,29.62,East,90,0.4,1.3,83,0.00,,,0.00,WUHU216HW,2013-05-19 08:46:00,
2013-05-19 03:51:00,71.6,66.3,29.62,SE,135,0.7,1.3,83,0.00,,,0.00,WUHU216HW,2013-05-19 08:51:00,
2013-05-19 03:56:00,71.7,66.3,29.61,SE,135,1.6,1.8,83,0.00,,,0.00,WUHU216HW,2013-05-19 08:56:00,
2013-05-19 04:01:00,71.6,66.3,29.61,ESE,103,0.5,1.8,83,0.00,,,0.00,WUHU216HW,2013-05-19 09:01:00,
2013-05-19 04:06:00,71.4,66.1,29.61,SE,126,0.7,1.8,83,0.00,,,0.00,WUHU216HW,2013-05-19 09:06:00,
2013-05-19 04:11:00,71.4,66.3,29.61,ESE,122,1.2,1.8,84,0.00,,,0.00,WUHU216HW,2013-05-19 09:11:00,
2013-05-19 04:16:00,71.4,66.4,29.60,East,90,1.8,2.7,84,0.00,,,0.00,WUHU216HW,2013-05-19 09:16:00,
2013-05-19 04:21:00,71.3,66.3,29.60,ESE,102,0.7,2.7,84,0.00,,,0.00,WUHU216HW,2013-05-19 09:21:00,
2013-05-19 04:26:00,71.1,66.1,29.59,East,90,2.7,2.7,84,0.00,,,0.00,WUHU216HW,2013-05-19 09:26:00,
2013-05-19 04:31:00,71.0,66.4,29.58,ESE,106,3.2,4.9,85,0.00,,,0.00,WUHU216HW,2013-05-19 09:31:00,
2013-05-19 04:36:00,70.8,66.1,29.58,ESE,113,1.8,4.9,85,0.00,,,0.00,WUHU216HW,2013-05-19 09:36:00,
2013-05-19 04:41:00,70.5,65.8,29.58,SE,128,2.1,3.6,85,0.00,,,0.00,WUHU216HW,2013-05-19 09:41:00,
2013-05-19 04:46:00,70.4,65.7,29.58,East,90,2.7,3.6,85,0.00,,,0.00,WUHU216HW,2013-05-19 09:46:00,
2013-05-19 04:51:00,70.3,65.6,29.59,NE,52,1.4,4.5,85,0.00,,,0.00,WUHU216HW,2013-05-19 09:51:00,
2013-05-19 04:56:00,70.4,65.7,29.58,ESE,113,1.1,4.5,85,0.00,,,0.00,WUHU216HW,2013-05-19 09:56:00,
2013-05-19 05:01:00,70.5,65.8,29.58,NE,45,3.4,6.3,85,0.00,,,0.00,WUHU216HW,2013-05-19 10:01:00,
2013-05-19 05:06:00,70.4,65.8,29.58,SE,135,2.5,6.3,85,0.00,,,0.00,WUHU216HW,2013-05-19 10:06:00,
2013-05-19 05:11:00,70.3,65.7,29.58,ESE,123,3.3,5.4,85,0.00,,,0.00,WUHU216HW,2013-05-19 10:11:00,
2013-05-19 05:16:00,70.2,65.6,29.58,ESE,113,1.8,5.4,85,0.00,,,0.00,WUHU216HW,2013-05-19 10:16:00,
2013-05-19 05:21:00,70.1,65.5,29.58,South,191,1.1,4.0,85,0.00,,,0.00,WUHU216HW,2013-05-19 10:21:00,
2013-05-19 05:26:00,70.2,65.5,29.58,SE,135,1.1,4.0,85,0.00,,,0.00,WUHU216HW,2013-05-19 10:26:00,
2013-05-19 05:31:00,70.1,65.4,29.58,NE,45,1.1,2.5,85,0.00,,,0.00,WUHU216HW,2013-05-19 10:31:00,
2013-05-19 05:36:00,70.4,65.7,29.58,ESE,113,2.5,2.9,85,0.00,,,0.00,WUHU216HW,2013-05-19 10:36:00,
2013-05-19 05:41:00,70.5,65.5,29.58,ESE,113,1.1,2.9,84,0.00,,,0.00,WUHU216HW,2013-05-19 10:41:00,
2013-05-19 05:46:00,70.4,65.4,29.58,SW,225,1.6,2.9,84,0.00,,,0.00,WUHU216HW,2013-05-19 10:46:00,
2013-05-19 05:51:00,70.3,65.3,29.58,South,176,1.4,3.8,84,0.00,,,0.00,WUHU216HW,2013-05-19 10:51:00,
2013-05-19 05:56:00,70.2,65.2,29.58,SW,225,1.3,3.8,84,0.00,,,0.00,WUHU216HW,2013-05-19 10:56:00,
2013-05-19 06:01:00,70.1,65.1,29.58,SE,135,2.0,3.4,84,0.00,,,0.00,WUHU216HW,2013-05-19 11:01:00,
2013-05-19 06:06:00,70.0,65.0,29.58,ESE,113,2.9,3.4,84,0.00,,,0.00,WUHU216HW,2013-05-19 11:06:00,
2013-05-19 06:11:00,69.9,64.9,29.58,SSE,152,1.9,4.5,84,0.00,,,0.00,WUHU216HW,2013-05-19 11:11:00,
2013-05-19 06:16:00,69.8,64.8,29.58,SSE,153,1.8,4.5,84,0.00,,,0.00,WUHU216HW,2013-05-19 11:16:00,
2013-05-19 06:22:00,69.7,64.7,29.58,ESE,111,1.5,3.4,84,0.00,,,0.00,WUHU216HW,2013-05-19 11:22:00,
2013-05-19 06:27:00,69.6,64.9,29.60,SW,222,1.3,3.4,85,0.00,,,0.00,WUHU216HW,2013-05-19 11:27:00,
2013-05-19 06:32:00,69.3,64.6,29.60,SE,145,0.8,3.4,85,0.00,,,0.00,WUHU216HW,2013-05-19 11:32:00,
2013-05-19 06:37:00,69.0,64.3,29.60,SE,133,0.7,3.1,85,0.00,,,0.00,WUHU216HW,2013-05-19 11:37:00,
2013-05-19 06:42:00,68.9,64.6,29.60,East,90,1.6,2.0,86,0.00,,,0.00,WUHU216HW,2013-05-19 11:42:00,
2013-05-19 06:47:00,68.5,64.2,29.60,SE,142,1.1,2.0,86,0.00,,,0.00,WUHU216HW,2013-05-19 11:47:00,
2013-05-19 06:52:00,68.5,64.1,29.60,NNE,23,0.9,2.2,86,0.00,,,0.00,WUHU216HW,2013-05-19 11:52:00,
2013-05-19 06:57:00,68.0,64.3,29.61,SSW,193,1.4,3.6,88,0.01,,,0.01,WUHU216HW,2013-05-19 11:57:00,
2013-05-19 07:02:00,67.9,64.2,29.60,NE,45,1.3,3.6,88,0.01,,,0.01,WUHU216HW,2013-05-19 12:02:00,
2013-05-19 07:07:00,67.6,64.3,29.60,SSE,158,2.6,4.0,89,0.01,,,0.01,WUHU216HW,2013-05-19 12:07:00,
2013-05-19 07:12:00,67.5,64.2,29.60,South,182,1.5,4.0,89,0.01,,,0.01,WUHU216HW,2013-05-19 12:12:00,
2013-05-19 07:17:00,67.3,63.9,29.59,NE,45,1.8,2.7,89,0.01,,,0.01,WUHU216HW,2013-05-19 12:17:00,
2013-05-19 07:22:00,67.2,63.9,29.58,ESE,112,1.7,3.1,89,0.01,,,0.01,WUHU216HW,2013-05-19 12:22:00,
2013-05-19 07:27:00,67.0,63.7,29.57,NE,45,2.5,3.1,89,0.01,,,0.01,WUHU216HW,2013-05-19 12:27:00,
2013-05-19 07:32:00,66.9,63.9,29.58,SW,225,1.1,2.5,90,0.01,,,0.01,WUHU216HW,2013-05-19 12:32:00,
2013-05-19 07:37:00,66.9,63.8,29.59,ENE,68,1.8,2.5,90,0.01,,,0.01,WUHU216HW,2013-05-19 12:37:00,
2013-05-19 07:42:00,66.8,64.1,29.58,ENE,67,2.3,3.8,91,0.01,,,0.01,WUHU216HW,2013-05-19 12:42:00,
2013-05-19 07:47:00,66.5,63.8,29.60,ENE,68,3.1,4.7,91,0.01,,,0.01,WUHU216HW,2013-05-19 12:47:00,
2013-05-19 07:52:00,66.4,64.1,29.60,East,88,4.5,5.6,92,0.01,,,0.01,WUHU216HW,2013-05-19 12:52:00,
2013-05-19 07:57:00,66.2,63.8,29.59,ENE,68,4.0,6.9,92,0.01,,,0.02,WUHU216HW,2013-05-19 12:57:00,
2013-05-19 08:02:00,65.9,63.5,29.57,ENE,66,5.8,6.9,92,0.01,,,0.02,WUHU216HW,2013-05-19 13:02:00,
2013-05-19 08:07:00,65.8,63.4,29.53,North,9,2.6,8.3,92,0.01,,,0.02,WUHU216HW,2013-05-19 13:07:00,
2013-05-19 08:12:00,65.6,63.5,29.58,SSW,203,4.5,8.3,93,0.01,,,0.02,WUHU216HW,2013-05-19 13:12:00,
2013-05-19 08:17:00,65.5,63.4,29.60,SSW,203,2.4,6.9,93,0.01,,,0.02,WUHU216HW,2013-05-19 13:17:00,
2013-05-19 08:22:00,65.4,63.3,29.60,SE,136,1.3,6.9,93,0.01,,,0.02,WUHU216HW,2013-05-19 13:22:00,
2013-05-19 08:27:00,65.5,63.5,29.60,SSW,203,1.3,2.2,93,0.01,,,0.02,WUHU216HW,2013-05-19 13:27:00,
2013-05-19 08:32:00,65.7,63.3,29.60,ESE,113,1.8,1.8,92,0.01,,,0.02,WUHU216HW,2013-05-19 13:32:00,
2013-05-19 08:37:00,66.0,63.6,29.59,East,88,2.0,3.4,92,0.01,,,0.02,WUHU216HW,2013-05-19 13:37:00,
2013-05-19 08:42:00,66.0,63.6,29.59,ENE,68,3.1,3.6,92,0.01,,,0.02,WUHU216HW,2013-05-19 13:42:00,
2013-05-19 08:47:00,66.6,64.2,29.58,ENE,68,3.4,6.3,92,0.01,,,0.02,WUHU216HW,2013-05-19 13:47:00,
2013-05-19 08:52:00,66.7,64.3,29.58,East,79,3.8,6.9,92,0.01,,,0.02,WUHU216HW,2013-05-19 13:52:00,
2013-05-19 08:57:00,66.9,64.2,29.58,ENE,68,3.4,6.9,91,0.00,,,0.02,WUHU216HW,2013-05-19 13:57:00,
2013-05-19 09:02:00,67.1,64.1,29.58,East,95,4.3,6.3,90,0.00,,,0.02,WUHU216HW,2013-05-19 14:02:00,
2013-05-19 09:07:00,67.2,64.2,29.58,ENE,77,5.0,6.9,90,0.00,,,0.02,WUHU216HW,2013-05-19 14:07:00,
2013-05-19 09:12:00,67.3,64.0,29.58,ESE,112,2.3,6.9,89,0.00,,,0.02,WUHU216HW,2013-05-19 14:12:00,
2013-05-19 09:17:00,67.6,64.2,29.58,East,95,2.1,5.6,89,0.00,,,0.02,WUHU216HW,2013-05-19 14:17:00,
2013-05-19 09:22:00,67.9,64.6,29.58,East,84,1.8,5.1,89,0.00,,,0.02,WUHU216HW,2013-05-19 14:22:00,
2013-05-19 09:27:00,68.6,64.6,29.58,South,174,1.3,5.1,87,0.00,,,0.02,WUHU216HW,2013-05-19 14:27:00,
2013-05-19 09:32:00,69.2,64.9,29.58,East,82,2.1,3.1,86,0.00,,,0.02,WUHU216HW,2013-05-19 14:32:00,
2013-05-19 09:37:00,69.7,65.1,29.58,SE,138,2.0,3.1,85,0.00,,,0.02,WUHU216HW,2013-05-19 14:37:00,
2013-05-19 09:42:00,70.2,65.2,29.58,SE,135,2.7,3.4,84,0.00,,,0.02,WUHU216HW,2013-05-19 14:42:00,
2013-05-19 09:47:00,71.2,66.2,29.58,East,88,2.2,3.4,84,0.00,,,0.02,WUHU216HW,2013-05-19 14:47:00,
2013-05-19 09:52:00,71.9,66.2,29.57,ESE,113,4.7,4.7,82,0.00,,,0.02,WUHU216HW,2013-05-19 14:52:00,
2013-05-19 09:57:00,71.3,65.6,29.58,ENE,68,3.4,7.4,82,0.00,,,0.02,WUHU216HW,2013-05-19 14:57:00,
2013-05-19 10:02:00,72.0,66.3,29.58,ESE,107,2.4,7.4,82,0.00,,,0.02,WUHU216HW,2013-05-19 15:02:00,
2013-05-19 10:07:00,72.2,65.8,29.58,SE,135,3.1,6.0,80,0.00,,,0.02,WUHU216HW,2013-05-19 15:07:00,
2013-05-19 10:12:00,72.4,66.0,29.58,ESE,113,3.1,7.2,80,0.00,,,0.02,WUHU216HW,2013-05-19 15:12:00,
2013-05-19 10:14:00,73.2,66.8,29.58,SE,135,1.8,1.8,80,0.00,,,0.02,WUHU216HW,2013-05-19 15:14:00,
2013-05-19 10:18:00,73.2,66.8,29.58,SE,135,1.8,7.2,80,0.00,,,0.02,WUHU216HW,2013-05-19 15:18:00,
2013-05-19 10:23:00,73.2,66.8,29.58,SE,135,1.8,1.8,80,0.00,,,0.02,WUHU216HW,2013-05-19 15:23:00,
2013-05-19 22:09:00,79.6,66.6,29.38,East,90,4.0,4.0,64,0.00,,,0.02,WUHU216HW,2013-05-20 03:09:00,
2013-05-19 22:14:00,79.9,67.3,29.39,ESE,103,3.0,5.6,65,0.00,,,0.24,WUHU216HW,2013-05-20 03:14:00,
2013-05-19 22:19:00,80.2,67.6,29.40,ENE,70,6.2,6.9,65,0.00,,,0.24,WUHU216HW,2013-05-20 03:19:00,
2013-05-19 22:24:00,80.4,67.9,29.40,NNE,23,4.9,6.9,65,0.00,,,0.24,WUHU216HW,2013-05-20 03:24:00,
2013-05-19 22:29:00,80.6,68.5,29.41,North,0,3.8,4.9,66,0.00,,,0.24,WUHU216HW,2013-05-20 03:29:00,
2013-05-19 22:34:00,80.9,69.2,29.42,ESE,113,6.3,8.3,67,0.00,,,0.24,WUHU216HW,2013-05-20 03:34:00,
2013-05-19 22:37:00,81.1,69.4,29.42,SE,135,4.0,4.0,67,0.00,,,0.24,WUHU216HW,2013-05-20 03:37:00,
2013-05-19 22:39:00,81.1,69.4,29.42,SE,135,4.0,8.3,67,0.00,,,0.24,WUHU216HW,2013-05-20 03:39:00,
2013-05-19 22:44:00,81.1,69.4,29.42,SE,135,4.0,6.3,67,0.00,,,0.24,WUHU216HW,2013-05-20 03:44:00,